Location: 3 Angels Observatory
(30.5437°N, 88.5068°W)
Time: 02:24:36
(UTC-05:00)

Amateur Radio Satellites - All Passes

Search period start: 04 August 2015 01:54
Search period end: 05 August 2015 01:54
Location: 3 Angels Observatory, 30.5437°N, 88.5068°W

Satellite Date Start Highest point End Downlink Frequencies (MHz)
Time Altitude Azimuth
YUBILEINY 04 Aug 01:55:32 02:02:35 26° 288° (WNW) 02:09:20 435.215
SWISSCUBE 04 Aug 02:06:52 02:11:40 77° 259° (W) 02:16:29 437.505
JAS-2 04 Aug 02:23:27 02:25:07 11° 85° (E) 02:27:32 435.910
O/OREOS (USA 219) 04 Aug 02:26:20 02:27:21 10° 302° (WNW) 02:28:05 437.305
ITUPSAT 1 04 Aug 02:29:38 02:34:16 47° 260° (W) 02:38:55 437.325
JUGNU 04 Aug 02:45:46 02:50:41 27° 173° (S) 02:55:37 437.505
STARS 04 Aug 02:50:00 02:53:20 22° 72° (ENE) 02:56:47 437.465
Cosmos 2504 04 Aug 02:56:12 03:03:17 81° 277° (W) 03:10:52 435.465 / 435.565
SRMSAT 04 Aug 02:56:16 03:00:01 17° 165° (SSE) 03:03:50 437.500
Gurwin Techsat 1B 04 Aug 03:02:38 03:07:54 60° 101° (E) 03:13:08 435.225
ITAMSAT 1 04 Aug 03:06:16 03:11:21 56° 100° (E) 03:16:25 435.822/435.867
Oscar 19 04 Aug 03:18:10 03:22:25 25° 289° (WNW) 03:26:32 437.125/150
CUSAT 1 04 Aug 03:20:30 03:21:54 13° 97° (E) 03:23:22 437.405
KKS-1 04 Aug 03:23:44 03:28:09 76° 259° (WSW) 03:32:35 437.445
BEESAT 04 Aug 03:27:25 03:28:51 11° 269° (W) 03:29:56 436.000
ISS 04 Aug 03:27:50 03:31:02 55° 44° (NE) 03:34:14 145.825
RS-15 04 Aug 03:51:42 03:56:20 13° 27° (NNE) 04:01:46 29.354- 29.394
AO-7 04 Aug 04:01:18 04:08:29 33° 98° (E) 04:15:51 29.400- 29.500
JAS-2 04 Aug 04:03:26 04:11:21 81° 102° (ESE) 04:18:52 435.910
STARS 04 Aug 04:26:10 04:29:42 23° 264° (W) 04:33:07 437.465
HORYU 2 04 Aug 04:27:18 04:31:40 48° 100° (E) 04:36:00 437.375
JUGNU 04 Aug 04:34:12 04:39:15 29° 183° (S) 04:44:17 437.505
MOZHAYETS 4 04 Aug 04:37:30 04:42:06 74° 77° (ENE) 04:46:46
GONETS M04 04 Aug 04:41:51 04:47:29 21° 85° (E) 04:53:37
SRMSAT 04 Aug 04:43:46 04:48:41 27° 174° (S) 04:53:36 437.500
Gurwin Techsat 1B 04 Aug 04:44:50 04:47:26 13° 293° (WNW) 04:49:42 435.225
ITAMSAT 1 04 Aug 04:47:49 04:50:26 14° 293° (WNW) 04:52:47 435.822/435.867
DANDE 04 Aug 05:05:37 05:07:51 17° 280° (W) 05:09:45 436.750
CUBESAT XI-V 04 Aug 05:08:21 05:08:28 10° 69° (ENE) 05:08:55 437.345
JAS-2 04 Aug 05:50:33 05:55:34 18° 296° (WNW) 06:00:05 435.910
AO-7 04 Aug 05:53:37 06:01:25 44° 292° (WNW) 06:09:03 29.400- 29.500
RS-15 04 Aug 06:01:22 06:12:45 51° 55° (NE) 06:24:35 29.354- 29.394
Cosmos 2499 04 Aug 06:05:15 06:07:30 12° 82° (E) 06:10:30 435.465 / 435.565
HORYU 2 04 Aug 06:06:02 06:07:55 12° 291° (WNW) 06:09:32 437.375
PRISM 04 Aug 06:22:05 06:24:11 14° 70° (ENE) 06:26:29 437.425
JUGNU 04 Aug 06:23:29 06:27:47 20° 193° (SSW) 06:32:00 437.505
SRMSAT 04 Aug 06:32:24 06:37:23 28° 184° (S) 06:42:22 437.500
GONETS M04 04 Aug 06:35:06 06:43:44 65° 279° (W) 06:52:21
CUTE-I 04 Aug 06:37:23 06:42:12 35° 98° (E) 06:47:03 437.470
CUBESAT XI-V 04 Aug 06:40:49 06:45:28 62° 260° (W) 06:50:05 437.345
STRAND 1 04 Aug 06:53:13 06:58:08 48° 74° (ENE) 07:03:05 437.568
BEESAT 3 04 Aug 07:12:23 07:13:55 12° 50° (NE) 07:15:38 437.485
Cubesat XI-IV 04 Aug 07:22:05 07:27:25 78° 284° (WNW) 07:32:43 437.490
SO-50 04 Aug 07:34:54 07:38:32 23° 111° (ESE) 07:42:23 436.795
Cosmos 2499 04 Aug 07:52:19 07:59:39 84° 276° (W) 08:07:37 435.465 / 435.565
HO-68 04 Aug 07:54:42 07:56:07 11° 89° (E) 07:58:14 435.675
PRISM 04 Aug 07:55:30 07:59:21 35° 262° (W) 08:03:10 437.425
PCSat 04 Aug 08:00:24 08:05:36 53° 111° (ESE) 08:10:53 145.827
DOVE 4 04 Aug 08:10:05 08:12:26 14° 93° (E) 08:15:08 437.250
BEESAT 2 04 Aug 08:13:27 08:17:19 45° 59° (ENE) 08:21:10 435.950
RS-15 04 Aug 08:14:10 08:25:08 42° 251° (WSW) 08:36:03 29.354- 29.394
CUTE-I 04 Aug 08:18:01 08:22:05 22° 290° (WNW) 08:25:58 437.470
SRMSAT 04 Aug 08:21:56 08:26:03 19° 193° (SSW) 08:30:07 437.500
AIST 2 04 Aug 08:32:39 08:35:04 15° 52° (NE) 08:37:36 435.215
STRAND 1 04 Aug 08:34:40 08:37:38 15° 268° (W) 08:40:17 437.568
GOMX 1 04 Aug 08:36:19 08:40:53 47° 100° (E) 08:45:47 467.674
M-CUBED/EXP-1 PRIME 04 Aug 08:39:17 08:41:13 13° 63° (ENE) 08:43:26 437.505
BRITE-PL 04 Aug 08:42:54 08:47:30 81° 282° (WNW) 08:52:29 437.365/2234.400
SEEDS 04 Aug 08:45:10 08:48:01 18° 94° (E) 08:51:00 437.485
BEESAT 3 04 Aug 08:48:18 08:52:08 45° 246° (WSW) 08:55:54 437.485
CUTE 1.7 + AOD 2 04 Aug 08:52:58 08:56:42 29° 97° (E) 09:00:27 437.475
CANX-2 04 Aug 09:01:37 09:05:42 43° 98° (E) 09:09:47 2200.000
AAUSAT CUBESAT 2 04 Aug 09:02:42 09:05:36 19° 94° (E) 09:08:37 437.432
AUBIESAT-1 04 Aug 09:03:53 09:07:02 22° 66° (ENE) 09:10:28 437.475
SO-50 04 Aug 09:14:46 09:18:56 30° 305° (NW) 09:23:10 436.795
CINEMA 3 04 Aug 09:29:40 09:34:18 47° 99° (E) 09:39:07 145.822/145.860
HO-68 04 Aug 09:37:35 09:44:49 89° 104° (ESE) 09:52:01 435.675
CUBEBUG 2 04 Aug 09:37:55 09:41:44 25° 96° (E) 09:45:41 437.445
DOVE 4 04 Aug 09:45:46 09:50:23 48° 284° (WNW) 09:55:13 437.250
PCSat 04 Aug 09:45:46 09:49:24 17° 307° (NW) 09:52:49 145.827
Cosmos 2499 04 Aug 09:52:38 09:54:24 10° 297° (WNW) 09:55:26 435.465 / 435.565
TIGRISAT 04 Aug 09:54:24 09:57:13 18° 71° (ENE) 10:00:15 435.000
BEESAT 2 04 Aug 09:54:31 09:55:00 10° 251° (WSW) 09:55:12 435.950
ANTELSAT 04 Aug 09:57:25 10:00:33 20° 71° (ENE) 10:03:52 437.575/2403.000
COMPASS 1 04 Aug 09:58:47 10:02:58 64° 283° (WNW) 10:07:05 437.405
DELFI C3 04 Aug 09:59:01 10:02:15 23° 95° (E) 10:05:32 145.870
AIST 2 04 Aug 10:09:57 10:13:48 36° 247° (WSW) 10:17:32 435.215
M-CUBED/EXP-1 PRIME 04 Aug 10:11:49 10:15:35 40° 258° (WSW) 10:19:40 437.505
YUBILEINY 04 Aug 10:15:37 10:21:23 20° 69° (ENE) 10:27:38 435.215
GOMX 1 04 Aug 10:16:11 10:18:46 14° 289° (WNW) 10:21:10 467.674
ZACube-1 04 Aug 10:19:00 10:23:22 42° 98° (E) 10:27:44 437.345
SEEDS 04 Aug 10:20:13 10:23:49 27° 287° (WNW) 10:27:20 437.485
POPSAT HIP 1 04 Aug 10:20:16 10:21:45 12° 70° (ENE) 10:23:27 437.405
QB50P2 04 Aug 10:27:49 10:30:18 16° 71° (ENE) 10:32:57 145.880/145.840
CUTE 1.7 + AOD 2 04 Aug 10:29:31 10:32:24 17° 289° (WNW) 10:35:06 437.475
HUMSAT D 04 Aug 10:37:09 10:40:40 25° 96° (E) 10:44:16 437.325/437.525
AAUSAT CUBESAT 2 04 Aug 10:37:42 10:41:11 25° 287° (WNW) 10:44:33 437.432
AUBIESAT-1 04 Aug 10:38:23 10:41:39 23° 262° (W) 10:45:02 437.475
FUNcube-1 04 Aug 10:38:54 10:43:28 73° 101° (E) 10:48:03 145.935
CANX-2 04 Aug 10:39:32 10:41:17 12° 290° (WNW) 10:42:47 2200.000
Cosmos 2491 04 Aug 10:45:20 10:50:22 18° 84° (E) 10:55:58 435.465 / 435.565
Oscar 11 04 Aug 10:45:47 10:50:02 51° 284° (WNW) 10:54:13 145.826/435.025
DUCHIFAT 1 04 Aug 10:47:15 10:50:38 25° 73° (ENE) 10:54:07 145.980
UNISAT 6 04 Aug 10:47:29 10:51:49 84° 78° (ENE) 10:56:16 437.425
UKube-1 04 Aug 10:48:27 10:51:24 19° 95° (E) 10:54:30 .
UWE-3 04 Aug 10:50:45 10:55:20 59° 284° (WNW) 10:59:56 435.000/436.395/437.385
NANOSAT C BR1 04 Aug 10:52:47 10:56:25 30° 74° (ENE) 11:00:09 145.865
QB50P1 04 Aug 10:53:01 10:56:42 31° 74° (ENE) 11:00:27 145.935-145.965
O/OREOS (USA 219) 04 Aug 10:58:41 11:03:03 42° 68° (ENE) 11:07:25 437.305
50 SAT 04 Aug 11:03:59 11:06:57 21° 95° (E) 11:10:00 437.505
CINEMA 3 04 Aug 11:08:27 11:11:11 15° 289° (WNW) 11:13:43 145.822/145.860
AISAT 04 Aug 11:11:47 11:15:17 24° 96° (E) 11:18:54 437.250
CUBEBUG 2 04 Aug 11:14:26 11:18:19 25° 287° (WNW) 11:22:09 437.445
CUBEBUG 1 04 Aug 11:15:56 11:17:53 13° 92° (E) 11:20:06 437.445
DX 1 04 Aug 11:21:06 11:25:21 54° 100° (E) 11:29:36 434.975-435.025
HO-68 04 Aug 11:28:16 11:31:46 14° 298° (WNW) 11:34:47 435.675
TIGRISAT 04 Aug 11:29:57 11:33:46 30° 264° (W) 11:37:37 435.000
ANTELSAT 04 Aug 11:33:31 11:37:11 26° 264° (W) 11:40:52 437.575/2403.000
DELFI C3 04 Aug 11:34:18 11:37:11 18° 288° (WNW) 11:39:56 145.870
POLYITAN 1 04 Aug 11:37:31 11:41:40 65° 259° (W) 11:45:51 437.675
BUGSAT 1 04 Aug 11:38:02 11:42:04 70° 77° (ENE) 11:46:04 437.445
AIST 1 04 Aug 11:42:33 11:46:52 65° 95° (E) 11:51:10
VELOX 1 04 Aug 11:48:58 11:53:21 66° 101° (E) 11:57:44 145.980
POPSAT HIP 1 04 Aug 11:53:19 11:57:17 41° 261° (W) 12:01:15 437.405
ZACube-1 04 Aug 11:56:51 11:59:23 14° 290° (WNW) 12:01:43 437.345
QB50P2 04 Aug 12:02:13 12:05:57 30° 263° (W) 12:09:40 145.880/145.840
YUBILEINY 04 Aug 12:10:18 12:19:04 70° 267° (W) 12:27:48 435.215
HUMSAT D 04 Aug 12:12:58 12:16:16 21° 288° (WNW) 12:19:26 437.325/437.525
ESTCUBE 1 04 Aug 12:15:00 12:19:30 87° 279° (W) 12:23:58 437.505/2401.250
DUCHIFAT 1 04 Aug 12:23:26 12:26:26 18° 265° (W) 12:29:18 145.980
UKube-1 04 Aug 12:23:51 12:27:32 27° 288° (WNW) 12:31:09 .
NANOSAT C BR1 04 Aug 12:29:47 12:32:21 15° 267° (W) 12:34:44 145.865
QB50P1 04 Aug 12:30:09 12:32:40 15° 267° (W) 12:34:58 145.935-145.965
Cosmos 2491 04 Aug 12:37:45 12:46:31 73° 278° (W) 12:55:15 435.465 / 435.565
50 SAT 04 Aug 12:38:25 12:41:26 20° 287° (WNW) 12:44:18 437.505
O/OREOS (USA 219) 04 Aug 12:39:55 12:42:09 13° 259° (W) 12:44:06 437.305
AISAT 04 Aug 12:48:15 12:51:46 23° 288° (WNW) 12:55:11 437.250
Cosmos 2504 04 Aug 12:49:25 12:55:57 25° 72° (ENE) 13:02:51 435.465 / 435.565
CUBEBUG 1 04 Aug 12:50:24 12:54:26 38° 286° (WNW) 12:58:25 437.445
Oscar 19 04 Aug 12:50:31 12:54:31 24° 71° (ENE) 12:58:40 437.125/150
TISAT 1 04 Aug 13:09:07 13:13:14 51° 100° (E) 13:17:22 437.305
SPROUT 04 Aug 13:11:50 13:16:09 81° 284° (WNW) 13:20:28 437.525
BEESAT 04 Aug 13:52:35 13:56:13 22° 95° (E) 13:59:59 436.000
CUSAT 1 04 Aug 13:58:34 14:01:19 15° 77° (ENE) 14:04:49 437.405
JAS-2 04 Aug 14:11:22 14:15:20 19° 64° (ENE) 14:19:53 435.910
SWISSCUBE 04 Aug 14:13:02 14:17:33 42° 99° (E) 14:22:03 437.505
Gurwin Techsat 1B 04 Aug 14:18:06 14:23:15 55° 75° (ENE) 14:28:26 435.225
ITAMSAT 1 04 Aug 14:18:39 14:23:38 48° 74° (ENE) 14:28:39 435.822/435.867
Oscar 19 04 Aug 14:29:18 14:33:46 29° 263° (W) 14:38:10 437.125/150
ITUPSAT 1 04 Aug 14:35:42 14:40:28 70° 102° (ESE) 14:45:12 437.325
Cosmos 2504 04 Aug 14:40:17 14:48:39 58° 268° (W) 14:56:58 435.465 / 435.565
VERMONT LUNAR 04 Aug 14:41:12 14:42:15 11° 140° (SE) 14:43:25 437.305
AO-7 04 Aug 14:54:43 15:01:24 29° 64° (ENE) 15:08:21 29.400- 29.500
KKS-1 04 Aug 15:20:41 15:24:40 32° 98° (E) 15:28:40 437.445
HORYU 2 04 Aug 15:20:42 15:24:05 23° 72° (ENE) 15:27:37 437.375
BEESAT 04 Aug 15:29:59 15:34:03 28° 288° (WNW) 15:38:01 436.000
CUSAT 1 04 Aug 15:38:51 15:43:46 53° 263° (W) 15:50:11 437.405
DANDE 04 Aug 15:45:51 15:50:23 69° 263° (W) 15:56:32 436.750
SWISSCUBE 04 Aug 15:52:17 15:55:04 15° 291° (WNW) 15:57:38 437.505
JAS-2 04 Aug 15:53:51 15:59:45 59° 261° (W) 16:06:27 435.910
ITAMSAT 1 04 Aug 16:00:21 16:03:26 15° 268° (W) 16:06:14 435.822/435.867
Gurwin Techsat 1B 04 Aug 16:00:52 16:03:37 14° 269° (W) 16:06:01 435.225
VERMONT LUNAR 04 Aug 16:15:31 16:18:39 79° 329° (NNW) 16:21:49 437.305
STARS 04 Aug 16:20:15 16:24:42 83° 283° (WNW) 16:29:08 437.465
MOZHAYETS 4 04 Aug 16:38:51 16:42:43 27° 96° (E) 16:46:37
AO-7 04 Aug 16:45:42 16:53:50 53° 258° (WSW) 17:01:57 29.400- 29.500
GONETS M04 04 Aug 16:52:19 17:00:41 50° 79° (E) 17:09:08
PCSat 04 Aug 16:55:41 16:58:21 14° 51° (NE) 17:01:16 145.827
HORYU 2 04 Aug 16:56:58 17:00:38 24° 264° (W) 17:04:13 437.375
KKS-1 04 Aug 16:58:01 17:01:04 18° 289° (WNW) 17:03:57 437.445
PHONESAT 2.4 04 Aug 17:31:44 17:35:03 44° 146° (SSE) 17:38:25 2401.200-2431.200
Cosmos 2499 04 Aug 17:50:21 17:57:28 28° 73° (ENE) 18:04:50 435.465 / 435.565
SO-50 04 Aug 17:50:59 17:55:49 56° 60° (ENE) 18:00:32 436.795
VERMONT LUNAR 04 Aug 17:53:21 17:55:41 19° 346° (NNW) 17:58:01 437.305
CUTE-I 04 Aug 17:53:46 17:58:32 34° 72° (ENE) 18:03:22 437.470
MOZHAYETS 4 04 Aug 18:16:15 18:19:48 22° 288° (WNW) 18:23:13
ISS 04 Aug 18:27:17 18:29:56 24° 129° (SE) 18:32:38 145.825
PCSat 04 Aug 18:36:56 18:42:19 67° 248° (WSW) 18:47:40 145.827
Cubesat XI-IV 04 Aug 18:38:20 18:43:42 82° 257° (WSW) 18:49:06 437.490
CUBESAT XI-V 04 Aug 18:43:11 18:47:39 50° 99° (E) 18:52:07 437.345
GONETS M04 04 Aug 18:50:00 18:57:11 28° 273° (W) 19:04:04
PHONESAT 2.4 04 Aug 19:09:55 19:13:05 31° 340° (NNW) 19:16:16 2401.200-2431.200
STRAND 1 04 Aug 19:09:57 19:14:07 26° 96° (E) 19:18:22 437.568
VERMONT LUNAR 04 Aug 19:31:26 19:33:09 14° 3° (N) 19:34:52 437.305
SO-50 04 Aug 19:33:53 19:35:55 12° 252° (WSW) 19:37:39 436.795
CUTE-I 04 Aug 19:34:28 19:38:41 23° 265° (W) 19:42:45 437.470
GOMX 1 04 Aug 19:40:25 19:43:45 24° 73° (ENE) 19:47:07 467.674
Cosmos 2499 04 Aug 19:42:27 19:51:03 54° 269° (W) 19:59:26 435.465 / 435.565
CUTE 1.7 + AOD 2 04 Aug 19:42:49 19:43:52 11° 70° (ENE) 19:45:11 437.475
PRISM 04 Aug 19:42:58 19:46:54 46° 100° (E) 19:50:50 437.425
BRITE-PL 04 Aug 19:48:54 19:53:14 60° 77° (ENE) 19:57:23 437.365/2234.400
CANX-2 04 Aug 19:50:18 19:52:49 16° 71° (ENE) 19:55:32 2200.000
HO-68 04 Aug 20:00:17 20:06:39 38° 69° (ENE) 20:13:09 435.675
ISS 04 Aug 20:03:44 20:06:20 21° 322° (NW) 20:08:52 145.825
RS-15 04 Aug 20:17:50 20:28:11 54° 111° (ESE) 20:38:53 29.354- 29.394
CUBESAT XI-V 04 Aug 20:22:53 20:24:42 12° 291° (WNW) 20:26:14 437.345
CINEMA 3 04 Aug 20:27:21 20:30:18 20° 72° (ENE) 20:33:24 145.822/145.860
COMPASS 1 04 Aug 20:44:14 20:48:08 39° 75° (ENE) 20:52:06 437.405
DOVE 4 04 Aug 20:46:14 20:50:23 87° 258° (WSW) 20:54:32 437.250
STRAND 1 04 Aug 20:48:58 20:53:16 27° 289° (WNW) 20:57:28 437.568
PHONESAT 2.4 04 Aug 20:49:27 20:51:43 16° 357° (N) 20:53:59 2401.200-2431.200
SEEDS 04 Aug 21:05:39 21:09:53 82° 259° (WSW) 21:14:09 437.485
VERMONT LUNAR 04 Aug 21:07:45 21:10:30 27° 19° (NNE) 21:13:16 437.305
ZACube-1 04 Aug 21:10:56 21:13:27 16° 71° (ENE) 21:16:10 437.345
CUTE 1.7 + AOD 2 04 Aug 21:15:17 21:19:24 47° 261° (W) 21:23:33 437.475
GOMX 1 04 Aug 21:18:51 21:21:55 19° 265° (W) 21:24:47 467.674
PRISM 04 Aug 21:21:30 21:21:58 10° 291° (WNW) 21:22:09 437.425
AAUSAT CUBESAT 2 04 Aug 21:21:45 21:25:57 80° 258° (WSW) 21:30:10 437.432
CANX-2 04 Aug 21:24:39 21:28:30 32° 263° (W) 21:32:20 2200.000
FUNcube-1 04 Aug 21:29:42 21:33:11 26° 73° (ENE) 21:36:48 145.935
Oscar 11 04 Aug 21:34:36 21:38:50 57° 76° (ENE) 21:43:07 145.826/435.025
UWE-3 04 Aug 21:42:20 21:46:24 54° 75° (ENE) 21:50:36 435.000/436.395/437.385
HO-68 04 Aug 21:48:04 21:54:24 33° 263° (W) 22:00:36 435.675
M-CUBED/EXP-1 PRIME 04 Aug 21:58:22 22:02:19 27° 99° (E) 22:06:10 437.505
BEESAT 2 04 Aug 22:01:33 22:05:12 33° 113° (ESE) 22:08:55 435.950
CINEMA 3 04 Aug 22:04:02 22:07:24 23° 265° (W) 22:10:43 145.822/145.860
AISAT 04 Aug 22:06:30 22:07:36 11° 69° (ENE) 22:08:58 437.250
CUBEBUG 2 04 Aug 22:06:33 22:10:37 53° 261° (W) 22:14:48 437.445
DX 1 04 Aug 22:11:51 22:15:13 23° 72° (ENE) 22:18:41 434.975-435.025
DELFI C3 04 Aug 22:14:23 22:18:25 66° 259° (W) 22:22:28 145.870
COMPASS 1 04 Aug 22:22:12 22:24:00 12° 268° (W) 22:25:34 437.405
AUBIESAT-1 04 Aug 22:23:19 22:27:46 45° 102° (ESE) 22:32:00 437.475
AIST 2 04 Aug 22:26:34 22:27:53 12° 109° (ESE) 22:29:28 435.215
PHONESAT 2.4 04 Aug 22:27:42 22:30:28 21° 14° (NNE) 22:33:15 2401.200-2431.200
RS-15 04 Aug 22:31:03 22:40:59 37° 311° (NW) 22:50:59 29.354- 29.394
BEESAT 3 04 Aug 22:34:58 22:38:59 65° 298° (WNW) 22:43:02 437.485
VELOX 1 04 Aug 22:41:24 22:45:09 29° 73° (ENE) 22:48:58 145.980
VERMONT LUNAR 04 Aug 22:44:14 22:47:17 44° 214° (SSW) 22:50:18 437.305
UNISAT 6 04 Aug 22:45:17 22:49:19 29° 96° (E) 22:53:25 437.425
ZACube-1 04 Aug 22:45:51 22:49:35 30° 264° (W) 22:53:20 437.345
Cosmos 2491 04 Aug 22:55:25 23:03:33 44° 78° (ENE) 23:11:48 435.465 / 435.565
HUMSAT D 04 Aug 22:57:58 23:02:02 59° 260° (W) 23:06:11 437.325/437.525
FUNcube-1 04 Aug 23:06:35 23:09:32 18° 266° (W) 23:12:22 145.935
ESTCUBE 1 04 Aug 23:09:01 23:13:16 42° 74° (ENE) 23:17:34 437.505/2401.250
YUBILEINY 04 Aug 23:09:19 23:16:04 27° 87° (E) 23:23:10 435.215
UKube-1 04 Aug 23:12:16 23:16:33 68° 259° (W) 23:20:52 .
50 SAT 04 Aug 23:15:22 23:19:14 83° 258° (WSW) 23:23:10 437.505
TIGRISAT 04 Aug 23:26:17 23:31:02 85° 102° (ESE) 23:35:44 435.000
BUGSAT 1 04 Aug 23:26:53 23:29:17 16° 94° (E) 23:31:53 437.445
POLYITAN 1 04 Aug 23:28:39 23:32:26 31° 97° (E) 23:36:16 437.675
ANTELSAT 04 Aug 23:29:56 23:34:41 84° 281° (W) 23:39:23 437.575/2403.000
AIST 1 04 Aug 23:32:57 23:37:05 49° 267° (W) 23:41:11
M-CUBED/EXP-1 PRIME 04 Aug 23:33:06 23:36:57 24° 293° (WNW) 23:40:33 437.505
AISAT 04 Aug 23:39:31 23:43:47 50° 260° (W) 23:48:04 437.250
CUBEBUG 1 04 Aug 23:40:23 23:44:44 85° 77° (ENE) 23:49:05 437.445
BEESAT 2 04 Aug 23:40:39 23:43:21 16° 307° (NW) 23:45:56 435.950
POPSAT HIP 1 04 Aug 23:43:43 23:47:50 46° 100° (E) 23:51:58 437.405
DX 1 04 Aug 23:47:57 23:51:23 22° 264° (W) 23:54:44 434.975-435.025
QB50P2 04 Aug 23:52:23 23:56:38 64° 101° (E) 00:00:53 145.880/145.840
TISAT 1 04 Aug 23:56:46 23:59:35 18° 71° (ENE) 00:02:32 437.305
AUBIESAT-1 04 Aug 23:59:20 00:02:03 15° 296° (WNW) 00:04:30 437.475
SPROUT 05 Aug 00:00:32 00:04:24 36° 74° (ENE) 00:08:20 437.525
AIST 2 05 Aug 00:02:02 00:06:06 45° 300° (WNW) 00:10:12 435.215
PHONESAT 2.4 05 Aug 00:05:15 00:08:46 81° 27° (NNE) 00:12:15 2401.200-2431.200
DUCHIFAT 1 05 Aug 00:12:03 00:16:18 77° 284° (WNW) 00:20:33 145.980
NANOSAT C BR1 05 Aug 00:18:08 00:22:21 62° 284° (WNW) 00:26:33 145.865
VELOX 1 05 Aug 00:18:36 00:21:44 18° 266° (W) 00:24:42 145.980
QB50P1 05 Aug 00:18:41 00:22:54 60° 283° (WNW) 00:27:05 145.935-145.965
UNISAT 6 05 Aug 00:22:17 00:25:56 22° 289° (WNW) 00:29:26 437.425
JUGNU 05 Aug 00:43:17 00:47:09 18° 165° (SSE) 00:51:04 437.505
ESTCUBE 1 05 Aug 00:48:08 00:50:22 13° 268° (W) 00:52:19 437.505/2401.250
Cosmos 2491 05 Aug 00:52:44 01:00:12 32° 272° (W) 01:07:26 435.465 / 435.565
BEESAT 05 Aug 00:54:52 00:57:19 14° 69° (ENE) 01:00:00 436.000
BUGSAT 1 05 Aug 01:01:13 01:04:48 29° 286° (WNW) 01:08:22 437.445
YUBILEINY 05 Aug 01:04:07 01:12:31 51° 281° (W) 01:20:55 435.215
O/OREOS (USA 219) 05 Aug 01:05:08 01:09:30 55° 291° (WNW) 01:13:55 437.305
POLYITAN 1 05 Aug 01:05:18 01:08:07 17° 289° (WNW) 01:10:47 437.675
Oscar 19 05 Aug 01:08:49 01:11:08 13° 92° (E) 01:13:48 437.125/150
SWISSCUBE 05 Aug 01:14:28 01:18:24 27° 72° (ENE) 01:22:27 437.505
Cosmos 2504 05 Aug 01:15:24 01:19:23 17° 84° (E) 01:23:58 435.465 / 435.565
POPSAT HIP 1 05 Aug 01:21:56 01:23:20 11° 290° (WNW) 01:24:28 437.405
TISAT 1 05 Aug 01:31:40 01:35:12 26° 264° (W) 01:38:40 437.305
ITUPSAT 1 05 Aug 01:36:57 01:41:27 42° 74° (ENE) 01:46:01 437.325
SPROUT 05 Aug 01:38:26 01:40:39 13° 268° (W) 01:42:38 437.525
PHONESAT 2.4 05 Aug 01:44:41 01:46:25 13° 220° (SW) 01:48:03 2401.200-2431.200
